CZ-6A DEB, 54264

Orbit data source: Space-Track

CZ-6A DEB, 54264 is space debris in SSO originally from a launch on Fri, 11 Nov 2022 UTC launched from the Taiyaun Space Center, China (TSC). Debris objects in space refer to the collection of defunct objects orbiting the Earth. Examples of debris include non-operational satellites, rocket bodies, and fragments generated from explosions, collisions, or faulty payload assembly.

Loading next visibility...
Identifier
54264, 2022-151F
Orbit
SSO
Country
Flag of CNCN / PRC
Related business
Manufacturer
SAST
Mission
Spacecraft
Bus & Motor
Unknown
Mass
Unknown
Launch date (UTC)
2022-11-11 (4 years ago)
Launch vehicle
Unknown
Launch site
Taiyaun Space Center, China (TSC)
Object type
Payload
Rocket body
Debris
Shape & HBR
Unknown shape, 0.1 m
Radar Cross Section
Medium (>0.1 m² and <1 m²)

Expand to show TLE details & history
Last TLE update: 1 day ago

TLE from 1 day ago
0 CZ-6A DEB
1 54264U 22151F   26236.38105625  .00000184  00000-0  24257-3 0  9997
2 54264  98.5721  70.4450 0352448 153.5687 208.3914 13.47528565185924
Epoch: 2026-08-24T09:08Z
TLE epoch observation values (Epoch: 2026-08-24T09:08:43.259Z)
Latitude
0.00005°
Longitude
-39.39884°
Altitude
1,317.522 km
Speed
7.085 km/s
True Right ascension
04h 41m 46s
True Declination
0° 00' 00"
Sunlit
Object was in daylight at epoch
Visualization orbit readout
Latitude
Unknown
Longitude
Unknown
Altitude
Unknown
Speed
Unknown
Apparent Right ascension
Unknown
Apparent Declination
Unknown
Sunlit
N/A
Visualization observer readout
Local Sidereal Time
02:50:38
Azimuth
Unknown
Elevation
Unknown
Doppler factor
Unknown
Orbital elements
Apogee altitude
1,341.422 km
Perigee altitude
815.799 km
Semi-major axis
7,456.747 km
Eccentricity
0.03524
Inclination
98.5721°
RAAN
70.445°
Arg. of periapsis
153.5687°
True anomaly
206.54307°
Mean anomaly
208.3914°
Eccentric anomaly
207.4602°
Mean motion
3.37069 °/min
Orbital period
106.8 mins
BSTAR
0.00024257
Loading maneuver chart data...
Computing Atmospheric mass density...
Loading historical data...
Loading historical data...
Loading historical data...
Loading historical data...
Loading historical data...
Loading historical data...
Loading historical data...

Documentation

Showing up to 5 results
|